Weather History for 94664 - August, 2013

Change the Weather History Date:

Monday, August 5, 2013

  Actual Average Record
Temperature  
Mean Temperature 62 °F -  
Max Temperature 75 °F - - ()
Min Temperature 48 °F - - ()
Degree Days  
Heating Degree Days 4    
Growing Degree Days 12 (Base 50)    
Moisture  
Dew Point 46 °F    
Average Humidity 63    
Maximum Humidity 100    
Minimum Humidity 31    
Precipitation  
Precipitation 0.00 in - - ()
Sea Level Pressure  
Sea Level Pressure 29.94 in    
Wind  
Wind Speed 12 mph ()    
Max Wind Speed 24 mph    
Max Gust Speed 29 mph    
Visibility 6.2 miles    
Events      
T = Trace of Precipitation, MM = Missing Value Source: Averaged Metar Reports

Daily Weather History Graph

Daily Weather History Graph

Search for Another Location

Airport or City:

Trip Planner

Search our weather history database for the weather conditions in past years. The results will help you decide how hot, cold, wet, or windy it might be!

Date:

Astronomy

Aug. 05, 2013 Rise Set
Actual Time 7:07 AM ACST 5:44 PM ACST
Civil Twilight 6:41 AM ACST 6:10 PM ACST
Nautical Twilight 6:12 AM ACST 6:40 PM ACST
Astronomical Twilight 5:43 AM ACST 7:09 PM ACST
Moon 5:34 AM ACST (8/5) 4:22 PM ACST (8/5)
Length of Visible Light 11h 28m
Length of Day
10h 37m
Waning Crescent, 3% of the Moon is Illuminated
Aug 5
Waning Crescent
Aug 7
New
Aug 14
First Quarter
Aug 21
Full
Aug 28
Last Quarter

Hourly Weather History & Observations

Time (ACST) Temp. Dew Point Humidity Pressure Visibility Wind Dir Wind Speed Gust Speed Precip Events Conditions
12:30 AM 50.0 °F 48.2 °F 94% 30.06 in 6.2 mi NNW 8.1 mph - N/A   Unknown
1:30 AM 48.2 °F 46.4 °F 93% 30.06 in 6.2 mi NNW 8.1 mph - N/A   Unknown
2:30 AM 48.2 °F 48.2 °F 100% 30.04 in 6.2 mi North 6.9 mph - N/A   Unknown
3:30 AM 51.8 °F 50.0 °F 94% 30.04 in 6.2 mi North 8.1 mph - N/A   Unknown
4:30 AM 50.0 °F 48.2 °F 94% 30.01 in 6.2 mi North 10.4 mph - N/A   Unknown
5:30 AM 50.0 °F 48.2 °F 94% 30.01 in 6.2 mi North 11.5 mph - N/A   Unknown
6:30 AM 48.2 °F 46.4 °F 93% 30.01 in 6.2 mi North 10.4 mph - N/A   Unknown
7:30 AM 48.2 °F 48.2 °F 100% 30.01 in 6.2 mi North 9.2 mph - N/A   Unknown
8:30 AM 55.4 °F 50.0 °F 82% 30.01 in 6.2 mi North 16.1 mph - N/A   Unknown
9:30 AM 59.0 °F 51.8 °F 77% 30.01 in 6.2 mi North 17.3 mph - N/A   Unknown
10:30 AM 62.6 °F 51.8 °F 68% 30.01 in 6.2 mi NNW 21.9 mph - N/A   Unknown
11:30 AM 64.4 °F 51.8 °F 64% 29.98 in 6.2 mi North 24.2 mph - N/A   Unknown
12:30 PM 69.8 °F 50.0 °F 49% 29.92 in 6.2 mi NNW 24.2 mph - N/A   Unknown
1:30 PM 71.6 °F 50.0 °F 46% 29.89 in 6.2 mi North 21.9 mph - N/A   Unknown
2:30 PM 73.4 °F 48.2 °F 41% 29.86 in 6.2 mi NNW 23.0 mph - N/A   Unknown
3:30 PM 75.2 °F 46.4 °F 36% 29.83 in 6.2 mi NNW 21.9 mph - N/A   Unknown
4:30 PM 73.4 °F 44.6 °F 36% 29.83 in 6.2 mi NNW 17.3 mph - N/A   Unknown
5:04 PM 75.2 °F 42.8 °F 31% 29.83 in 6.2 mi NNW 17.3 mph 28.8 mph N/A   Unknown
5:30 PM 73.4 °F 41.0 °F 31% 29.83 in 6.2 mi NNW 17.3 mph - N/A   Mostly Cloudy
6:30 PM 69.8 °F 41.0 °F 35% 29.86 in 6.2 mi NNW 11.5 mph - N/A   Unknown
7:30 PM 68.0 °F 41.0 °F 37% 29.86 in 6.2 mi NNW 12.7 mph - N/A   Scattered Clouds
8:30 PM 68.0 °F 39.2 °F 35% 29.86 in 6.2 mi NNW 15.0 mph - N/A   Unknown
9:30 PM 66.2 °F 41.0 °F 40% 29.86 in 6.2 mi NW 9.2 mph - N/A   Scattered Clouds
10:30 PM 60.8 °F 42.8 °F 52% 29.86 in 6.2 mi NNW 9.2 mph - N/A   Scattered Clouds
11:30 PM 60.8 °F 41.0 °F 48% 29.86 in 6.2 mi NW 10.4 mph - N/A   Scattered Clouds